Paso Robles, CA

2:48 AM PDT on July 23, 2017 (GMT -0700)
Paso Robles Municipal

Weather History for KPRB - September, 2013

Change the Weather History Date:

Monday, September 23, 2013

  Actual Average Record
Temperature  
Mean Temperature 68 °F 68 °F  
Max Temperature 88 °F 87 °F 104 °F (2002)
Min Temperature 48 °F 49 °F 40 °F (1972)
Degree Days  
Heating Degree Days 0 1  
Month to date heating degree days 1 11  
Since 1 July heating degree days 1 19  
Cooling Degree Days 3 4  
Month to date cooling degree days 186 133  
Year to date cooling degree days 1160 866  
Growing Degree Days 18 (Base 50)    
Moisture  
Dew Point 46 °F    
Average Humidity 54    
Maximum Humidity 86    
Minimum Humidity 21    
Precipitation  
Precipitation 0.00 in 0.01 in 0.58 in (1958)
Month to date precipitation 0.00 0.13  
Year to date precipitation 1.46 9.03  
Since 1 July precipitation T  
Sea Level Pressure  
Sea Level Pressure 29.94 in    
Wind  
Wind Speed 6 mph (NE)    
Max Wind Speed 16 mph    
Max Gust Speed 28 mph    
Visibility 10 miles    
Events      
T = Trace of Precipitation, MM = Missing Value Source: NWS Daily Summary

Daily Weather History Graph

Daily Weather History Graph

Search for Another Location

Airport or City:

Trip Planner

Search our weather history database for the weather conditions in past years. The results will help you decide how hot, cold, wet, or windy it might be!

Date:

Astronomy

Sep. 23, 2013 Rise Set
Actual Time 6:51 AM PDT 6:57 PM PDT
Civil Twilight 6:26 AM PDT 7:22 PM PDT
Nautical Twilight 5:56 AM PDT 7:52 PM PDT
Astronomical Twilight 5:26 AM PDT 8:22 PM PDT
Moon 9:43 PM PDT 11:06 AM PDT
Length of Visible Light 12h 56m
Length of Day
12h 05m
Waning Gibbous, 80% of the Moon is Illuminated
Sep 23
Waning Gibbous
Sep 26
Last Quarter
Oct 4
New
Oct 11
First Quarter
Oct 18
Full

Hourly Weather History & Observations

Time (PDT) Temp. Dew Point Humidity Pressure Visibility Wind Dir Wind Speed Gust Speed Precip Events Conditions
12:53 AM 59.0 °F 48.9 °F 69% 29.96 in 10.0 mi Calm Calm - N/A   Clear
1:53 AM 57.0 °F 48.9 °F 74% 29.97 in 10.0 mi NW 8.1 mph - N/A   Clear
2:53 AM 55.9 °F 48.0 °F 75% 29.96 in 10.0 mi NW 6.9 mph - N/A   Clear
3:53 AM 55.0 °F 48.0 °F 77% 29.96 in 10.0 mi NW 9.2 mph - N/A   Clear
4:53 AM 50.0 °F 46.0 °F 86% 29.96 in 10.0 mi Calm Calm - N/A   Clear
5:53 AM 51.1 °F 45.0 °F 80% 29.96 in 10.0 mi Calm Calm - N/A   Clear
6:53 AM 51.1 °F 46.0 °F 83% 29.98 in 10.0 mi Calm Calm - N/A   Clear
7:53 AM 52.0 °F 45.0 °F 77% 30.00 in 10.0 mi Calm Calm - N/A   Clear
8:53 AM 57.0 °F 46.9 °F 69% 30.01 in 10.0 mi NNW 3.5 mph - N/A   Clear
9:53 AM 64.9 °F 48.0 °F 54% 29.99 in 10.0 mi North 4.6 mph - N/A   Clear
10:53 AM 71.1 °F 48.0 °F 44% 29.98 in 10.0 mi WNW 8.1 mph - N/A   Clear
11:53 AM 77.0 °F 46.0 °F 33% 29.96 in 10.0 mi ENE 5.8 mph - N/A   Clear
12:53 PM 82.0 °F 43.0 °F 25% 29.94 in 10.0 mi ESE 13.8 mph 19.6 mph N/A   Clear
1:53 PM 84.0 °F 43.0 °F 24% 29.91 in 10.0 mi ESE 12.7 mph 20.7 mph N/A   Clear
2:53 PM 86.0 °F 42.1 °F 21% 29.89 in 10.0 mi ESE 11.5 mph 18.4 mph N/A   Clear
3:53 PM 87.1 °F 43.0 °F 21% 29.87 in 10.0 mi ESE 11.5 mph 18.4 mph N/A   Clear
4:53 PM 87.1 °F 43.0 °F 21% 29.86 in 10.0 mi ESE 10.4 mph - N/A   Clear
5:53 PM 86.0 °F 42.1 °F 21% 29.86 in 10.0 mi ESE 11.5 mph - N/A   Clear
6:53 PM 82.0 °F 44.1 °F 26% 29.87 in 10.0 mi East 8.1 mph - N/A   Clear
7:53 PM 75.0 °F 45.0 °F 34% 29.89 in 10.0 mi East 6.9 mph - N/A   Clear
8:53 PM 73.9 °F 46.0 °F 37% 29.93 in 10.0 mi North 3.5 mph - N/A   Clear
9:53 PM 70.0 °F 48.9 °F 47% 29.94 in 10.0 mi West 6.9 mph - N/A   Clear
10:53 PM 66.9 °F 50.0 °F 54% 29.95 in 10.0 mi Calm Calm - N/A   Clear
11:53 PM 63.0 °F 48.9 °F 60% 29.95 in 10.0 mi NNE 3.5 mph - N/A   Clear